FENGYUN 1C DEB, 37064

Orbit data source: Space-Track

FENGYUN 1C DEB, 37064 is space debris in SSO originally from a launch on Mon, 10 May 1999 UTC launched from the Taiyaun Space Center, China (TSC). Fengyun 1C debris stems from the Chinese weather satellite Fengyun-1C, which was intentionally destroyed by a Chinese anti-satellite missile in 2007. This event dramatically increased the amount of space debris, with thousands of trackable fragments posing hazards to satellites and human spaceflight. The Fengyun 1C debris cloud has become a focal point in discussions about space sustainability and the need for international regulations to prevent the creation of new debris.

Loading next visibility...
Identifier
37064, 1999-025EEY
Orbit
SSO
Country
Flag of CNCN / PRC
Related business
Manufacturer
Unknown
Mission
Spacecraft
Bus & Motor
Unknown
Mass
Unknown
Launch date (UTC)
1999-05-10 (27 years ago)
Launch vehicle
Unknown
Launch site
Taiyaun Space Center, China (TSC)
Object type
Payload
Rocket body
Debris
Shape & HBR
Unknown shape, 0.1 m
Radar Cross Section
Small (<0.1 m²)

Expand to show TLE details & history
Last TLE update: 2 weeks ago

TLE from 2 weeks ago
0 FENGYUN 1C DEB
1 37064U 99025EEY 26147.69692647  .00005196  00000-0  24206-2 0  9991
2 37064  98.9065 305.1543 0099262 349.4739  10.4357 14.18344021838868
Epoch: 2026-05-27T16:43Z
TLE epoch observation values (Epoch: 2026-05-27T16:43:34.447Z)
Latitude
-0.00001°
Longitude
169.00847°
Altitude
763.499 km
Speed
7.509 km/s
True Right ascension
20h 20m 37s
True Declination
0° 00' 00"
Sunlit
Object was in full shadow at epoch
Visualization orbit readout
Latitude
Unknown
Longitude
Unknown
Altitude
Unknown
Speed
Unknown
Apparent Right ascension
Unknown
Apparent Declination
Unknown
Sunlit
N/A
Visualization observer readout
Local Sidereal Time
18:44:31
Azimuth
Unknown
Elevation
Unknown
Doppler factor
Unknown
Orbital elements
Apogee altitude
899.659 km
Perigee altitude
756.598 km
Semi-major axis
7,206.266 km
Eccentricity
0.00993
Inclination
98.9065°
RAAN
305.1543°
Arg. of periapsis
349.4739°
True anomaly
10.64427°
Mean anomaly
10.4357°
Eccentric anomaly
10.53973°
Mean motion
3.54795 °/min
Orbital period
101.47 mins
BSTAR
0.0024206
Loading maneuver chart data...
Computing Atmospheric mass density...

Documentation

Showing up to 5 results
|